Simultaneous Nadir Overpasses (SNOs) Predictions

Prediction of SNOs over PacNW region [( 10.00, 139.50) to ( 22.70, 165.60)] between AQUA and NPP Satellites:

Table of predicted SNOs over PacNW region for the next 30.0 days since TLE Epoch: 6/18/2021
Index Date (AQUA) Time (AQUA) AQUA Lat,Lon Date (NPP) Time (NPP) NPP Lat,Lon Distance(km) Time Diff (sec)
1 06/20/2021 15:09:43 22.58, 159.85 06/20/2021 15:10:55 23.16, 157.23 276.10 72
2 06/23/2021 03:31:32 22.65, 147.54 06/23/2021 03:28:03 25.65, 144.99 422.27 209
3 06/28/2021 15:59:08 22.61, 147.50 06/28/2021 16:01:46 23.25, 144.54 311.36 158
4 07/06/2021 15:09:38 22.63, 159.88 07/06/2021 15:11:07 23.25, 157.21 281.80 89
5 07/09/2021 03:31:27 22.65, 147.56 07/09/2021 03:27:58 24.59, 145.22 321.51 209
6 07/14/2021 15:59:01 22.60, 147.52 07/14/2021 16:01:57 23.29, 144.51 317.78 176
